Showing default

EXPLORER 40 (INJUN-5), 3338

Orbit data source: Space-Track

EXPLORER 40 (INJUN-5), 3338 is a payload satellite owned by NASA LaRC (US) in LEO that was launched on Thu, 08 Aug 1968 UTC via an SCOUT B launch vehicle from the Air Force Western Test Range (AFWTR). Payload-class satellites include a variety of spacecraft equipped with specific instruments for various scientific and technological missions. These include communications satellites like Starlink; space stations such as the ISS; scientific satellites like the Hubble; Earth observation satellites from companies like Planet Labs, Umbra, and HawkEye 360; GPS; miniature CubeSats for education and research; and military/defense satellites.

Loading next visibility...
Identifier
3338, 1968-066B
Orbit
LEO
Country
Flag of USUS
Related business
Manufacturer
Iowa
Mission
Spacecraft
Bus & Motor
INJUN E, Unknown motor
Mass
70 kg wet, 70 kg dry
Launch date (UTC)
1968-08-08 (57 years ago)
Launch vehicle
SCOUT B
Launch site
Air Force Western Test Range (AFWTR)
Object type
Payload
Rocket body
Debris
Shape & HBR
Unknown
Radar Cross Section
Large (>1 m²)

Expand to show TLE details & history
Last TLE update: 12 hours ago

TLE from 12 hours ago
0 EXPLORER 40 (INJUN-5)
1 03338U 68066B   25350.76890565  .00000121  00000-0  12791-3 0  9991
2 03338  80.6608 226.4084 1130535 314.1066  37.2169 12.23516832556009
Epoch: 2025-12-16T18:27Z
TLE epoch observation values (Epoch: 2025-12-16T18:27:13.448Z)
Latitude
-0.00007°
Longitude
-136.04602°
Altitude
906.368 km
Speed
7.706 km/s
True Right ascension
15h 05m 38s
True Declination
0° 00' 00"
Sunlit
Object was in daylight at epoch
Visualization orbit readout
Latitude
Unknown
Longitude
Unknown
Altitude
Unknown
Speed
Unknown
Apparent Right ascension
Unknown
Apparent Declination
Unknown
Sunlit
N/A
Visualization observer readout
Local Sidereal Time
05:00:04
Azimuth
Unknown
Elevation
Unknown
Doppler factor
Unknown
Orbital elements
Apogee altitude
2,473.759 km
Perigee altitude
675.575 km
Semi-major axis
7,952.804 km
Eccentricity
0.11305
Inclination
80.6608°
RAAN
226.4084°
Arg. of periapsis
314.1066°
True anomaly
46.00529°
Mean anomaly
37.2169°
Eccentric anomaly
41.50985°
Mean motion
3.06029 °/min
Orbital period
117.64 mins
BSTAR
0.00012791
Loading maneuver chart data...
Computing Atmospheric mass density...
Loading historical data...
Loading historical data...
Loading historical data...
Loading historical data...
Loading historical data...
Loading historical data...
Loading historical data...

Documentation

Showing up to 5 results
|